Regional Weather Roundup
Issued by NWS

Home | Current Version | Previous Version | Graphics & Text | Print | Product List | Glossary On
Versions: 1 2 3 4 5 6 7 8 9 10 11 12 13 14 15 16 17 18 19 20 21 22 23 24 25 26 27 28 29 30 31 32 33 34 35 36 37 38 39 40 41 42 43 44 45 46 47 48 49 50
000
ASUS45 KBOU 010507
RWRCO

WEATHER ROUNDUP FOR COLORADO
NATIONAL WEATHER SERVICE DENVER/BOULDER CO
1000 PM MST SAT FEB 28 2015

NOTE: "FAIR" INDICATES FEW OR NO CLOUDS BELOW 12000 FEET WITH NO
SIGNIFICANT WEATHER AND/OR OBSTRUCTIONS TO VISIBILITY.

COZ001>005-013-030-031-010600-
...NORTHWEST COLORADO...

CITY           SKY/WX    TMP DP  RH WIND       PRES   REMARKS
CRAIG          LGT SNOW  29  27  92 CALM      29.85R FOG
HAYDEN         CLOUDY    27  25  93 CALM      29.84R
MEEKER         LGT SNOW  30  28  92 NW5       29.84R VSB 1   WCI  25
MOUNT WERNER   NOT AVBL
STEAMBOAT SPGS CLOUDY    26  25  96 CALM      29.84R
WALDEN         CLOUDY    18  14  86 N3        29.82R VSB 1
$$

COZ006>008-011-010600-
...WEST CENTRAL VALLEYS...

CITY           SKY/WX    TMP DP  RH WIND       PRES   REMARKS
GRAND JUNCTION CLOUDY    33  30  88 SE6       29.87R WCI  28
MONTROSE       LGT SNOW  33  32  96 W9        29.94R FOG     WCI  25
EAGLE          LGT SNOW  30  28  93 NE6       29.89R VSB 1   WCI  24
RIFLE          MOCLDY    32  25  75 CALM      29.86R
DELTA          CLOUDY    36  34  90 N5        29.92R
NUCLA          NOT AVBL
$$

COZ017>023-064>068-010600-
...SOUTHWEST COLORADO...

CITY           SKY/WX    TMP DP  RH WIND       PRES   REMARKS
DURANGO        LGT SNOW  30  28  92 CALM      29.96R FOG
CORTEZ         PTCLDY    28  27  96 E8        29.94R WCI  20
PAGOSA SPRINGS LGT SNOW  30  30 100 CALM      29.95R
TELLURIDE      FLURRIES  30  18  62 W6G17     29.93R WCI  24
WOLF CREEK PAS HVY SNOW  18  18 100 SW28G40   29.92R VSB 1/4 WCI  -1
$$

COZ009-010-012-014-032>034-037-058>063-010600-
...CENTRAL COLORADO...

CITY           SKY/WX    TMP DP  RH WIND       PRES   REMARKS
ASPEN          FLURRIES  27  25  92 CALM      29.84R
BUENA VISTA    LGT SNOW  22  19  90 E3        29.90R
COPPER MTN     LGT SNOW  19  12  73 SW7G18    29.83R WCI  10
BERTHOUD PASS  SNOW      10   3  72 NW16      29.82R VSB 1/4 WCI  -7
COTTONWOOD PAS LGT SNOW  21  19  93 CALM      29.86R VSB 1
GUNNISON       CLOUDY    25  19  80 CALM      29.93R
KREMMLING      MOCLDY    23  18  80 CALM      29.85R
LEADVILLE      LGT SNOW  16  15  96 S8        29.84R FOG     WCI   5
SALIDA         MOCLDY    21  16  81 E8        29.97S WCI  11
SUNLIGHT       LGT SNOW  21  19  93 CALM        N/A
WILKERSON PASS LGT SNOW  16  12  86 SW6       29.86R WCI   7
$$

COZ069>075-010600-
...SAN LUIS VALLEY/SANGRE DE CRISTO MOUNTAINS...

CITY           SKY/WX    TMP DP  RH WIND       PRES   REMARKS
ALAMOSA        CLOUDY    24  20  84 CALM      29.92R
LA VETA PASS   CLOUDY    23  21  93 S13G28    29.89R FOG     WCI  11
SAGUACHE       PTCLDY    21  18  86 NW7       29.93R WCI  13
$$

COZ035-036-038>040-010600-
...NORTHERN COLORADO FRONT RANGE...

CITY           SKY/WX    TMP DP  RH WIND       PRES   REMARKS
DENVER INTL AP MOCLDY    17  10  74 SW5       30.00R WCI  10
DMNS CITY PARK   N/A     18  13  80 SE2       30.00R
AURORA         MOCLDY    14  10  82 CALM      30.00R
FRONT RANGE AP NOT AVBL
ERIE MUNI ARPT PTCLDY    17  15  92 CALM      30.01S
BOULDER MUN AP PTCLDY    21  21 100 CALM      30.00R FOG
CENTENNIAL     MOCLDY    15  10  80 CALM      29.98S
BROOMFIELD     MOCLDY    19  16  86 CALM      29.99R
FORT COLLINS   PTCLDY    18  12  79 E6        30.03R WCI   9
LONGMONT       PTCLDY    20  19  93 CALM      30.03S FOG
$$

COZ041-046-047-076>085-087-088-010600-
...PIKES PEAK/PALMER DIVIDE AND SOUTHERN FOOTHILLS...

CITY           SKY/WX    TMP DP  RH WIND       PRES   REMARKS
COLO. SPRINGS  LGT SNOW  16  13  88 CALM      29.97F FOG
A. F. ACADEMY  CLOUDY    14  11  88 S5        29.94F WCI   6
ELLICOTT       NOT AVBL
FALCON         PTCLDY    10   8  92 SW3       29.94S FOG
FORT CARSON    PTCLDY    13  10  87 NW2       29.97S
LIMON          CLOUDY    14  10  84 CALM      30.00F
MONUMENT HILL  CLEAR      7   3  85 SW7       29.91S WCI  -5
TRINIDAD       CLOUDY    17  13  84 NE6       30.01R WCI   9
$$

COZ042>045-048>051-090-091-010600-
...NORTHEAST COLORADO...

CITY           SKY/WX    TMP DP  RH WIND       PRES   REMARKS
GREELEY ARPT   PTCLDY    19  10  68 E6        30.02S WCI  11
AKRON          MOCLDY    18  15  88 SE6       30.03F WCI  10
BURLINGTON     CLOUDY    19  12  74 S6        30.10R WCI  11
WRAY           CLOUDY    22  15  74 SE5       30.13F WCI  15
STERLING       MOCLDY    23  18  80 SE7       30.06F WCI  15
HOLYOKE        NOT AVBL
FORT MORGAN    MOCLDY    19  15  86 E6        30.04F WCI  11
$$

COZ086-089-092>099-010600-
...SOUTHEAST COLORADO...

CITY           SKY/WX    TMP DP  RH WIND       PRES   REMARKS
PUEBLO         PTCLDY    16  11  80 CALM      30.05S
LA JUNTA       CLOUDY    19  13  77 CALM      30.10R
LAMAR          MOCLDY    19  18  95 CALM      30.11R FOG
SPRINGFIELD      N/A     17  14  88 N3        30.06F
$$


USA.gov is the U.S. government's official web portal to all federal, state and local government web resources and services.